Precipitable_Water
1.13 1.08 1.01 0.99 0.99 1.00 0.98 0.96 0.95 0.91 0.85 0.79 0.73 0.71 0.70 0.72 0.74 0.71 0.70 0.70 0.70 0.68 0.67 0.67 0.66 0.65 0.65 0.64 0.62 0.58 0.56 0.55 0.54 0.55 0.54 0.53 0.53 0.53 0.51 0.50 0.50 0.51
1.06 1.05 1.03 1.00 0.99 0.99 0.99 0.98 0.94 0.88 0.81 0.76 0.74 0.72 0.70 0.70 0.71 0.71 0.70 0.69 0.68 0.65 0.65 0.65 0.64 0.60 0.57 0.55 0.54 0.52 0.51 0.51 0.50 0.53 0.49 0.49 0.50 0.49 0.48 0.48 0.47 0.46
1.03 1.02 1.00 0.98 0.98 0.97 0.97 0.97 0.90 0.84 0.78 0.76 0.75 0.72 0.70 0.72 0.70 0.70 0.69 0.65 0.63 0.61 0.61 0.61 0.58 0.56 0.56 0.54 0.53 0.53 0.51 0.51 0.50 0.52 0.50 0.49 0.48 0.45 0.44 0.45 0.45 0.42
1.00 1.00 1.00 1.00 1.00 0.99 0.97 0.90 0.85 0.81 0.78 0.74 0.73 0.73 0.73 0.72 0.69 0.65 0.62 0.60 0.58 0.56 0.56 0.56 0.55 0.56 0.56 0.55 0.54 0.53 0.52 0.51 0.52 0.51 0.48 0.47 0.47 0.45 0.42 0.43 0.42 0.40
0.98 0.98 0.97 0.96 0.95 0.94 0.91 0.87 0.83 0.80 0.76 0.73 0.73 0.73 0.71 0.68 0.64 0.59 0.57 0.55 0.52 0.50 0.50 0.52 0.54 0.54 0.55 0.54 0.53 0.51 0.51 0.50 0.50 0.48 0.45 0.42 0.43 0.41 0.41 0.40 0.39 0.37
0.97 0.96 0.96 0.94 0.94 0.91 0.89 0.86 0.83 0.80 0.76 0.72 0.71 0.71 0.68 0.65 0.60 0.56 0.52 0.48 0.47 0.46 0.47 0.50 0.51 0.53 0.54 0.53 0.52 0.50 0.50 0.48 0.47 0.45 0.41 0.38 0.38 0.38 0.38 0.37 0.36 0.35
0.92 0.93 0.92 0.93 0.91 0.89 0.87 0.84 0.81 0.78 0.75 0.75 0.73 0.69 0.66 0.61 0.56 0.52 0.48 0.45 0.44 0.44 0.44 0.47 0.49 0.51 0.52 0.52 0.49 0.48 0.48 0.46 0.44 0.41 0.37 0.37 0.37 0.36 0.37 0.37 0.36 0.34
0.90 0.91 0.91 0.91 0.88 0.86 0.84 0.81 0.79 0.78 0.77 0.74 0.70 0.68 0.64 0.59 0.54 0.49 0.45 0.43 0.41 0.41 0.44 0.47 0.49 0.49 0.50 0.49 0.47 0.45 0.45 0.44 0.41 0.40 0.39 0.37 0.36 0.34 0.35 0.36 0.35 0.33
0.88 0.87 0.87 0.86 0.84 0.83 0.80 0.79 0.78 0.77 0.76 0.71 0.68 0.65 0.62 0.58 0.52 0.47 0.44 0.41 0.39 0.40 0.43 0.46 0.48 0.48 0.48 0.47 0.46 0.45 0.43 0.41 0.42 0.40 0.37 0.35 0.34 0.33 0.34 0.35 0.34 0.34
0.88 0.88 0.86 0.83 0.79 0.78 0.77 0.77 0.77 0.75 0.73 0.70 0.67 0.64 0.58 0.54 0.49 0.45 0.41 0.39 0.38 0.38 0.41 0.44 0.46 0.47 0.47 0.47 0.46 0.44 0.41 0.40 0.41 0.40 0.37 0.34 0.34 0.33 0.34 0.35 0.35 0.34
0.91 0.90 0.88 0.86 0.85 0.83 0.80 0.79 0.77 0.77 0.76 0.73 0.69 0.63 0.57 0.51 0.46 0.42 0.40 0.38 0.37 0.37 0.40 0.44 0.46 0.47 0.47 0.46 0.45 0.44 0.43 0.41 0.40 0.39 0.36 0.35 0.34 0.34 0.35 0.35 0.36 0.35
0.91 0.89 0.88 0.87 0.87 0.87 0.87 0.86 0.84 0.80 0.77 0.72 0.66 0.59 0.54 0.49 0.44 0.41 0.39 0.38 0.38 0.38 0.40 0.43 0.46 0.47 0.46 0.45 0.45 0.44 0.42 0.41 0.39 0.38 0.36 0.35 0.34 0.34 0.34 0.36 0.35 0.35
0.91 0.90 0.89 0.87 0.86 0.86 0.84 0.81 0.78 0.75 0.70 0.65 0.62 0.57 0.52 0.47 0.44 0.41 0.40 0.39 0.39 0.39 0.40 0.42 0.45 0.46 0.45 0.45 0.44 0.43 0.42 0.39 0.37 0.36 0.35 0.34 0.33 0.33 0.34 0.35 0.35 0.36
0.90 0.89 0.87 0.86 0.84 0.82 0.80 0.77 0.75 0.72 0.68 0.65 0.61 0.55 0.50 0.46 0.43 0.39 0.39 0.39 0.39 0.40 0.42 0.44 0.44 0.45 0.45 0.45 0.44 0.43 0.41 0.39 0.36 0.35 0.33 0.32 0.32 0.33 0.34 0.34 0.35 0.36
0.87 0.85 0.84 0.83 0.82 0.80 0.78 0.76 0.73 0.70 0.67 0.63 0.58 0.52 0.49 0.45 0.42 0.39 0.38 0.37 0.39 0.40 0.42 0.43 0.44 0.45 0.45 0.45 0.43 0.41 0.40 0.38 0.36 0.34 0.33 0.32 0.30 0.31 0.34 0.34 0.35 0.35
0.83 0.82 0.80 0.79 0.78 0.76 0.74 0.72 0.70 0.66 0.63 0.59 0.54 0.49 0.45 0.41 0.38 0.38 0.37 0.37 0.38 0.39 0.41 0.42 0.43 0.44 0.44 0.43 0.43 0.41 0.39 0.38 0.36 0.35 0.34 0.32 0.30 0.30 0.32 0.34 0.34 0.34
0.80 0.78 0.77 0.75 0.74 0.73 0.71 0.69 0.66 0.64 0.60 0.56 0.52 0.47 0.43 0.39 0.37 0.36 0.36 0.37 0.38 0.39 0.40 0.41 0.43 0.43 0.43 0.43 0.42 0.41 0.40 0.38 0.35 0.34 0.34 0.33 0.30 0.29 0.30 0.31 0.32 0.33
0.78 0.76 0.74 0.72 0.72 0.70 0.68 0.66 0.64 0.61 0.58 0.56 0.53 0.48 0.45 0.40 0.36 0.35 0.36 0.37 0.38 0.39 0.40 0.41 0.42 0.43 0.43 0.44 0.44 0.42 0.40 0.37 0.36 0.34 0.34 0.32 0.30 0.29 0.29 0.30 0.30 0.30
0.77 0.74 0.72 0.70 0.69 0.68 0.67 0.65 0.61 0.58 0.56 0.54 0.52 0.49 0.45 0.40 0.37 0.37 0.37 0.37 0.37 0.39 0.40 0.41 0.42 0.43 0.44 0.43 0.42 0.41 0.40 0.38 0.36 0.33 0.32 0.31 0.30 0.29 0.28 0.27 0.28 0.28
0.74 0.71 0.68 0.67 0.67 0.66 0.64 0.60 0.58 0.55 0.54 0.53 0.51 0.47 0.43 0.39 0.38 0.38 0.38 0.37 0.38 0.39 0.39 0.40 0.41 0.43 0.43 0.41 0.39 0.39 0.39 0.38 0.37 0.33 0.31 0.30 0.29 0.28 0.28 0.28 0.26 0.25
0.72 0.69 0.66 0.66 0.65 0.61 0.58 0.55 0.52 0.50 0.48 0.48 0.46 0.44 0.43 0.42 0.41 0.39 0.38 0.37 0.37 0.37 0.38 0.39 0.40 0.41 0.39 0.39 0.38 0.37 0.36 0.35 0.34 0.33 0.31 0.30 0.30 0.28 0.28 0.28 0.27 0.25
0.70 0.67 0.65 0.63 0.59 0.56 0.53 0.50 0.48 0.47 0.44 0.44 0.46 0.48 0.49 0.48 0.45 0.42 0.38 0.35 0.35 0.35 0.35 0.35 0.36 0.36 0.36 0.37 0.37 0.36 0.35 0.33 0.32 0.31 0.31 0.31 0.29 0.28 0.28 0.28 0.27 0.25
0.69 0.65 0.63 0.59 0.56 0.52 0.49 0.46 0.44 0.43 0.43 0.45 0.45 0.46 0.46 0.44 0.43 0.41 0.38 0.35 0.34 0.33 0.31 0.30 0.30 0.32 0.33 0.34 0.34 0.34 0.32 0.30 0.29 0.28 0.28 0.29 0.29 0.27 0.27 0.26 0.26 0.25
0.67 0.64 0.60 0.57 0.52 0.47 0.44 0.43 0.42 0.43 0.44 0.44 0.42 0.43 0.42 0.42 0.41 0.38 0.37 0.35 0.31 0.29 0.27 0.25 0.25 0.27 0.27 0.28 0.29 0.30 0.29 0.28 0.27 0.26 0.26 0.27 0.27 0.26 0.24 0.24 0.24 0.25
0.66 0.62 0.57 0.52 0.48 0.46 0.43 0.40 0.40 0.43 0.45 0.43 0.39 0.38 0.36 0.36 0.34 0.31 0.31 0.30 0.29 0.27 0.27 0.24 0.24 0.24 0.24 0.24 0.25 0.26 0.27 0.27 0.26 0.25 0.24 0.25 0.25 0.24 0.24 0.24 0.24 0.25
0.63 0.58 0.53 0.49 0.46 0.44 0.43 0.43 0.47 0.49 0.47 0.45 0.42 0.38 0.35 0.33 0.31 0.30 0.30 0.30 0.29 0.27 0.25 0.24 0.23 0.23 0.24 0.23 0.23 0.23 0.24 0.25 0.26 0.23 0.22 0.23 0.23 0.23 0.21 0.22 0.23 0.23
Wind_Speed
10 9 8 8 8 8 8 7 7 7 6 6 5 4 5 5 6 7 7 8 9 9 10 11 12 13 14 15 16 17 18 19 20 20 20 20 20 20 21 21 21 21
10 9 8 8 8 8 8 8 7 7 6 6 5 5 5 5 6 7 8 8 9 9 10 11 12 13 14 15 16 17 18 19 20 20 20 20 20 20 20 21 21 21
9 9 9 9 9 8 8 8 7 6 6 5 5 5 6 6 7 7 8 9 9 10 10 12 13 13 14 15 16 17 19 19 19 19 19 19 20 20 20 20 21 22
9 9 9 10 10 9 9 8 7 6 6 6 6 6 6 7 7 8 8 9 10 10 11 12 13 14 15 16 17 18 19 19 19 19 19 19 20 20 20 21 21 22
9 9 9 9 9 9 8 7 6 6 6 6 6 6 7 7 8 8 9 10 10 11 12 12 13 14 15 16 17 18 18 19 19 19 19 20 21 21 21 22 22 23
9 9 9 9 8 8 8 7 6 6 6 7 7 7 8 8 9 9 10 10 11 12 12 13 14 15 16 16 17 18 18 19 19 20 20 21 21 21 22 22 22 23
9 9 9 8 8 8 8 7 7 7 7 7 8 8 8 9 9 10 10 11 12 12 13 13 14 15 16 16 17 18 18 19 20 20 20 21 21 22 22 22 23 23
10 9 9 9 9 9 8 8 8 8 8 8 8 9 9 9 10 10 11 12 12 13 13 13 14 15 16 16 17 18 19 19 20 20 21 21 22 22 22 22 23 24
10 10 10 10 10 9 9 9 9 9 9 9 9 10 10 10 10 11 11 12 13 13 13 14 14 15 16 16 17 18 19 19 20 21 21 22 22 22 22 23 23 24
10 10 10 10 10 10 10 10 10 10 10 10 10 10 10 10 10 11 12 12 13 13 13 13 14 15 16 16 17 18 19 19 20 21 21 21 21 22 22 23 24 25
10 10 10 10 10 10 10 10 10 10 10 10 10 10 10 11 11 11 12 12 12 12 13 13 14 15 16 16 17 18 19 19 20 20 21 21 22 22 23 23 24 26
10 9 9 10 10 10 10 10 9 10 9 9 10 10 10 11 11 11 12 12 12 12 13 14 14 15 16 17 17 18 19 19 20 20 21 21 22 22 23 24 25 26
9 9 9 9 9 9 9 9 9 9 9 10 10 10 10 11 11 11 11 11 12 12 13 14 14 15 16 17 17 18 18 19 19 20 21 21 22 23 23 24 25 26
9 9 9 9 9 9 9 9 9 9 9 9 10 10 10 10 11 11 11 11 12 12 13 13 14 15 16 17 17 18 18 19 20 20 21 22 23 23 23 24 25 26
8 8 8 9 9 9 8 8 8 8 8 9 9 9 10 10 10 11 11 11 12 12 13 13 14 15 16 17 17 17 18 19 19 20 21 22 23 23 24 25 26 27
8 8 9 9 8 8 8 8 8 8 8 8 9 9 9 10 10 10 11 11 12 12 13 13 14 15 16 16 17 17 18 18 19 20 20 21 23 24 24 25 26 27
9 9 9 9 8 8 8 8 8 8 8 8 9 9 9 10 10 10 11 11 12 12 13 13 13 14 15 16 16 17 17 18 19 19 20 21 23 24 25 26 26 27
9 9 9 9 8 8 8 8 8 8 8 9 9 9 9 10 10 10 11 12 12 12 12 12 13 14 15 15 16 17 17 18 18 19 20 22 23 24 25 25 26 27
10 10 9 9 9 8 8 8 8 8 9 9 9 9 9 9 10 11 11 12 12 11 11 11 12 14 15 16 16 17 17 17 18 20 21 22 23 24 24 25 26 27
10 10 10 9 9 8 8 8 8 9 9 9 9 8 8 9 10 10 10 10 10 10 10 11 13 14 15 15 16 17 17 18 19 20 21 22 22 23 23 24 25 26
11 10 10 9 9 9 8 8 8 8 8 8 8 8 8 9 9 9 9 9 10 10 11 12 14 14 15 15 16 16 17 18 19 20 21 21 22 22 23 24 25 26
11 10 10 10 9 9 9 8 8 8 8 8 8 8 8 8 8 8 9 9 10 11 12 12 13 14 14 15 16 16 17 17 18 19 19 20 21 22 23 24 25 26
11 11 10 10 10 9 9 9 8 8 7 8 8 8 8 8 8 9 9 9 10 11 12 12 13 14 15 15 16 17 17 17 17 18 19 20 21 22 23 24 25 26
12 11 11 11 10 10 9 9 8 7 7 7 8 8 8 8 8 8 9 9 10 11 11 12 13 14 15 15 16 16 16 16 17 18 19 19 21 22 23 23 25 26
12 12 12 11 10 10 9 9 8 7 7 7 7 7 7 7 7 7 8 9 10 10 11 12 13 13 14 14 15 15 16 16 17 18 19 20 21 21 22 23 24 25
13 12 12 11 10 10 9 9 8 8 7 7 7 7 7 7 7 7 8 9 10 10 11 12 12 13 14 14 15 15 16 16 17 18 19 20 20 21 22 23 23 24
Wind_Direction
200 204 211 215 218 222 227 232 236 236 244 257 263 266 275 285 294 301 305 309 312 314 317 320 321 323 325 326 326 326 326 326 326 326 326 326 326 326 327 327 326 325
205 210 214 216 219 226 232 238 240 242 248 253 256 266 277 286 294 301 304 306 310 313 316 318 320 323 324 325 326 327 328 328 329 329 329 329 328 328 327 327 327 326
210 214 217 220 224 230 237 242 243 242 244 247 256 268 277 286 293 300 303 306 307 310 313 315 318 320 323 325 327 328 329 330 330 330 331 331 330 329 328 327 327 327
212 217 221 225 229 233 238 240 240 240 243 250 259 268 276 285 292 297 302 305 306 307 309 312 316 319 322 325 326 328 330 331 331 330 330 331 330 330 329 328 328 328
216 219 221 224 226 229 231 233 237 241 247 254 261 268 276 284 290 295 299 302 303 305 307 311 315 319 322 324 326 328 330 330 330 329 329 330 330 329 328 328 328 329
217 218 218 220 221 223 227 233 241 247 252 258 263 270 276 283 289 294 296 299 302 304 307 310 314 318 321 323 325 327 329 329 328 329 330 330 330 329 328 328 329 330
214 215 217 221 223 226 230 236 243 250 255 260 265 272 278 283 288 293 296 299 301 303 306 309 312 316 320 322 324 326 327 327 328 329 331 331 330 330 330 330 331 332
217 220 224 228 229 230 233 238 247 253 259 264 269 274 280 285 288 292 296 299 301 303 305 308 311 315 318 321 323 325 326 327 328 330 331 332 331 331 331 331 331 332
221 226 229 232 233 233 237 244 252 259 263 268 273 277 282 287 290 293 296 298 301 302 305 308 311 313 316 319 322 323 325 326 328 331 332 332 332 332 331 331 332 332
225 228 231 233 235 237 242 249 255 261 266 270 274 277 282 287 291 294 295 298 301 303 304 307 310 312 315 318 321 323 324 326 329 332 332 332 333 332 332 332 332 333
228 230 232 234 236 240 244 250 254 259 264 268 273 277 282 287 292 295 296 297 301 303 304 306 309 311 314 317 320 323 325 327 329 331 332 333 333 333 333 333 333 333
228 229 231 232 235 239 245 250 254 258 263 268 274 279 283 287 291 294 296 297 300 303 303 305 307 310 313 316 320 324 326 328 329 331 332 333 334 334 334 334 333 333
225 228 230 231 236 241 246 252 256 260 265 270 275 279 283 287 291 294 296 297 300 302 304 305 307 310 314 317 321 325 326 327 329 331 333 334 334 334 334 334 333 333
225 228 230 234 238 242 247 253 257 261 266 271 275 280 284 288 293 296 297 298 300 303 306 307 309 311 315 318 320 323 325 326 329 331 333 334 335 335 334 334 334 334
227 230 233 235 238 242 247 251 255 261 268 274 277 281 286 291 295 296 297 298 301 304 307 308 311 314 317 320 321 323 324 326 328 330 332 334 335 335 334 333 334 334
228 233 235 237 239 242 245 248 254 261 268 274 278 283 288 293 296 298 298 300 302 305 307 309 312 316 319 322 324 325 325 325 327 328 330 332 335 335 334 333 334 334
232 234 235 237 238 240 241 245 254 262 268 276 281 285 290 294 298 300 301 303 304 306 308 310 313 317 321 324 326 326 326 326 325 326 329 331 334 335 335 334 334 335
235 234 234 236 235 237 241 248 257 264 270 277 282 285 289 294 298 302 304 305 305 306 309 311 314 319 322 324 326 326 326 325 326 326 328 330 332 334 335 335 335 335
233 233 234 235 235 238 245 252 260 266 271 276 280 284 288 292 297 301 305 306 306 307 309 312 316 321 324 326 325 325 325 325 326 328 329 330 332 334 336 337 336 336
230 231 231 232 233 239 246 255 262 268 272 275 278 282 286 291 296 300 305 307 308 308 308 311 317 321 324 325 325 325 326 325 325 328 330 332 334 335 335 336 337 337
225 227 228 229 233 240 249 258 265 270 272 274 277 281 285 290 294 298 303 308 309 309 309 312 316 320 322 324 324 326 328 328 327 329 331 333 334 335 335 336 337 338
222 223 224 228 234 242 250 258 264 269 271 273 277 281 284 287 289 292 298 304 308 310 313 315 317 319 322 323 325 326 328 329 330 332 333 333 334 335 336 336 338 339
219 222 224 230 237 243 249 256 263 268 272 274 277 281 284 286 287 290 295 303 309 313 317 319 319 321 323 325 326 328 329 330 332 334 334 334 334 336 337 337 339 341
220 224 227 232 238 243 248 254 260 267 272 276 277 279 282 284 287 292 298 305 311 315 317 319 321 325 327 329 330 330 331 332 333 335 335 336 336 337 338 339 340 342
223 227 230 234 239 243 248 251 257 263 269 273 275 277 280 283 288 296 303 308 311 314 317 320 323 327 331 333 335 335 334 333 334 335 337 337 338 338 338 340 342 344
225 229 232 235 239 242 246 250 256 260 263 266 270 274 278 284 291 298 304 309 312 315 318 321 324 328 332 335 336 337 337 336 336 337 338 339 340 341 340 342 345 346